Waarnemingen

Advertentie
Mijn weer
Cannes, Frankrijk (7684): temperatuur & dauwpunt: 19.09.2018 11:00:00 - 25.09.2018 11:00:00 (CEST)Cannes, Frankrijk (7684): temperatuur 5cm: 19.09.2018 11:00:00 - 25.09.2018 11:00:00 (CEST)Cannes, Frankrijk (7684): windsnelheid & windstoten: 19.09.2018 11:00:00 - 25.09.2018 11:00:00 (CEST)Cannes, Frankrijk (7684): windrichting: 19.09.2018 11:00:00 - 25.09.2018 11:00:00 (CEST)Cannes, Frankrijk (7684): luchtdruk: 19.09.2018 11:00:00 - 25.09.2018 11:00:00 (CEST)Cannes, Frankrijk (7684): zicht: 19.09.2018 11:00:00 - 25.09.2018 11:00:00 (CEST)Cannes, Frankrijk (7684): neerslag: 19.09.2018 11:00:00 - 25.09.2018 11:00:00 (CEST)
Datum & Tijd tt [°C] td [°C] tt 5cm [°C] ff [km/u] ff [kn] fx [km/u] fx [kn] dd ppp [hPa] vv [km] rr [mm]
25.09.2018 11:00:00 23,3 8,2 24,2 23 13 51 27 O 1026,7 20 0,0
25.09.2018 10:00:00 23,8 9,0 22,4 13 7 33 18 O 1025,9 60 0,0
25.09.2018 09:00:00 22,6 9,0 19,9 6 4 19 10 ONO 1025,0 57 0,0
25.09.2018 08:00:00 20,1 11,0 19,1 4 2 22 12 N 1024,4 60 0,0
25.09.2018 07:00:00 21,0 9,9 19,1 8 4 28 15 NNO 1023,7 18 0,0
25.09.2018 06:00:00 22,6 10,4 18,3 8 5 27 14 O 1023,1 60 0,0
25.09.2018 05:00:00 19,9 12,9 18,5 5 3 21 12 N 1022,7 60 0,0
25.09.2018 04:00:00 24,1 10,7 22,8 8 5 35 19 O 1022,3 60 0,0
25.09.2018 03:00:00 23,8 14,2 20,0 6 4 33 18 OZO 1022,3 60 0,0
25.09.2018 02:00:00 23,0 13,5 18,9 6 4 24 13 N 1022,2 60 0,0
25.09.2018 01:00:00 20,5 11,7 17,1 8 4 15 8 NNO 1021,6 60 0,0
25.09.2018 00:00:00 20,2 14,1 16,4 3 2 6 3 NW 1020,7 60 0,0
24.09.2018 23:00:00 21,1 14,5 18,8 4 2 9 5 NNO 1019,7 60 0,0
24.09.2018 22:00:00 22,3 14,2 20,5 6 4 10 5 N 1019,0 60 0,0
24.09.2018 21:00:00 23,9 14,0 21,2 4 2 11 6 N 1018,1 60 0,0
24.09.2018 20:00:00 25,5 13,4 22,9 3 1 7 4 ZW 1017,3 60 0,0
24.09.2018 19:00:00 26,9 12,2 24,6 2 1 11 6 W 1016,3 60 0,0
24.09.2018 18:00:00 28,5 11,5 27,8 4 2 16 9 O 1015,7 60 0,0
24.09.2018 17:00:00 29,5 13,3 33,0 8 4 22 12 ZO 1015,7 18 0,0
24.09.2018 16:00:00 28,3 18,4 31,6 14 8 24 13 Z 1015,8 52 0,0
24.09.2018 15:00:00 28,4 18,8 33,7 11 6 24 13 Z 1015,6 19 0,0
24.09.2018 14:00:00 28,2 20,0 29,8 14 7 23 12 ZZO 1015,8 20 0,0
24.09.2018 13:00:00 26,8 18,4 30,0 7 4 18 10 Z 1015,5 52 0,0
24.09.2018 12:00:00 26,8 18,9 31,2 9 5 21 11 ZZO 1014,8 46 0,0
24.09.2018 11:00:00 26,7 19,6 32,4 10 5 16 9 Z 1014,3 40 0,0
24.09.2018 10:00:00 25,4 19,8 23,0 2 1 8 4 WNW 1013,2 34 0,0
24.09.2018 09:00:00 21,8 18,6 20,5 4 2 9 5 NNO 1012,1 13 0,0
24.09.2018 08:00:00 19,5 17,5 17,0 3 2 7 4 NNW 1011,1 16 0,0
24.09.2018 07:00:00 19,8 17,8 16,9 4 2 9 5 N 1010,4 18 0,0
24.09.2018 06:00:00 21,1 17,1 18,5 4 2 18 10 N 1010,3 50 0,0
24.09.2018 05:00:00 22,0 14,1 16,8 6 3 25 13 ZO 1010,2 40 0,0
24.09.2018 04:00:00 18,3 17,1 16,8 4 2 11 6 N 1010,3 13 0,0
24.09.2018 03:00:00 18,6 17,4 17,5 7 4 16 9 N 1011,3 12 0,0
24.09.2018 02:00:00 19,0 17,5 17,9 5 3 13 7 N 1012,0 16 0,0
24.09.2018 01:00:00 19,2 17,7 18,0 5 3 10 6 N 1012,6 15 0,0
24.09.2018 00:00:00 19,9 18,2 18,9 6 4 11 6 N 1013,8 17 0,0
23.09.2018 23:00:00 20,5 18,8 19,3 4 2 10 5 N 1014,6 18 0,0
23.09.2018 22:00:00 21,4 19,1 20,0 5 3 10 5 NNO 1015,5 20 0,0
23.09.2018 21:00:00 22,7 19,3 20,0 5 3 7 4 N 1015,9 32 0,0
23.09.2018 20:00:00 23,6 19,3 21,8 5 3 13 7 ZZW 1016,0 17 0,0
23.09.2018 19:00:00 24,9 19,9 24,9 6 3 19 10 ZZO 1016,3 35 0,0
23.09.2018 18:00:00 25,5 19,4 29,2 12 7 22 12 ZZO 1016,5 43 0,0
23.09.2018 17:00:00 25,8 19,7 30,6 11 6 18 10 ZZO 1016,9 43 0,0
23.09.2018 16:00:00 26,1 20,2 29,1 10 6 19 11 ZZO 1017,5 20 0,0
23.09.2018 15:00:00 26,0 20,1 29,1 9 5 18 10 Z 1018,1 30 0,0
23.09.2018 14:00:00 25,6 20,4 28,4 8 5 18 10 ZZO 1018,7 20 0,0
23.09.2018 13:00:00 26,3 19,7 29,7 10 5 21 11 ZO 1019,0 18 0,0
23.09.2018 12:00:00 27,1 18,7 28,0 9 5 18 10 ZO 1019,2 19 0,0
23.09.2018 11:00:00 25,5 18,4 23,8 0 0 13 7 N 1019,3 20 0,0
23.09.2018 10:00:00 21,8 17,0 21,0 7 4 13 7 N 1019,0 41 0,0
23.09.2018 09:00:00 19,6 16,4 18,3 7 4 16 8 N 1018,7 35 0,0
23.09.2018 08:00:00 18,5 16,1 17,7 7 4 15 8 N 1018,1 30 0,0
23.09.2018 07:00:00 18,6 16,2 17,8 8 4 15 8 N 1017,9 26 0,0
23.09.2018 06:00:00 18,7 16,5 18,0 7 4 14 8 N 1017,7 23 0,0
23.09.2018 05:00:00 19,0 16,8 18,0 6 4 14 8 N 1017,7 20 0,0
23.09.2018 04:00:00 19,3 17,4 18,4 6 4 11 6 N 1017,9 19 0,0
23.09.2018 03:00:00 19,6 17,9 18,4 4 2 10 5 N 1018,2 18 0,0
23.09.2018 02:00:00 20,2 18,3 19,2 7 4 12 6 N 1018,5 17 0,0
23.09.2018 01:00:00 20,3 18,6 19,2 5 3 11 6 N 1018,6 15 0,0
23.09.2018 00:00:00 20,7 18,8 19,5 7 4 10 5 N 1018,4 16 0,0
22.09.2018 23:00:00 21,5 18,9 20,1 4 2 11 6 N 1018,7 19 0,0
22.09.2018 22:00:00 22,3 18,9 20,7 5 3 9 5 N 1018,2 20 0,0
22.09.2018 21:00:00 23,1 19,1 20,6 4 2 7 4 N 1017,6 26 0,0
22.09.2018 20:00:00 24,2 19,1 21,1 3 2 9 5 ZZW 1016,8 19 0,0
22.09.2018 19:00:00 25,3 18,7 25,0 5 3 13 7 Z 1016,3 36 0,0
22.09.2018 18:00:00 26,6 19,0 30,8 8 5 18 10 ZZO 1016,0 39 0,0
22.09.2018 17:00:00 27,7 19,5 33,3 10 5 23 12 ZZO 1015,8 43 0,0
22.09.2018 16:00:00 27,7 18,7 34,6 14 8 23 12 Z 1015,8 20 0,0
22.09.2018 15:00:00 28,2 18,0 34,7 16 9 23 12 ZZO 1015,9 32 0,0
22.09.2018 14:00:00 28,3 18,4 34,9 17 9 23 12 Z 1016,0 20 0,0
22.09.2018 13:00:00 28,2 18,0 34,2 13 7 20 11 Z 1016,1 24 0,0
22.09.2018 12:00:00 27,4 20,0 34,1 11 6 18 10 ZZO 1016,0 20 0,0
22.09.2018 11:00:00 27,2 19,0 30,0 6 3 11 6 Z 1016,1 19 0,0
22.09.2018 10:00:00 24,7 18,9 22,9 4 2 11 6 NNO 1015,7 20 0,0
22.09.2018 09:00:00 21,2 17,6 20,4 5 3 13 7 N 1015,3 20 0,0
22.09.2018 08:00:00 19,5 16,9 18,2 6 3 11 6 N 1015,1 20 0,0
22.09.2018 07:00:00 19,1 16,7 18,4 4 2 13 7 NW 1014,4 20 0,0
22.09.2018 06:00:00 19,3 16,5 18,1 6 3 13 7 N 1014,2 25 0,0
22.09.2018 05:00:00 19,2 16,6 18,2 3 2 9 5 N 1014,2 20 0,0
22.09.2018 04:00:00 19,5 16,9 18,6 5 3 10 6 N 1014,3 20 0,0
22.09.2018 03:00:00 19,8 17,2 18,8 5 3 10 6 N 1014,7 20 0,0
22.09.2018 02:00:00 19,8 17,6 18,9 7 4 13 7 N 1014,7 17 0,0
22.09.2018 01:00:00 20,4 18,0 18,9 5 3 14 8 N 1014,4 18 0,0
22.09.2018 00:00:00 20,3 18,2 18,5 5 3 9 5 N 1014,6 16 0,0
21.09.2018 23:00:00 21,6 18,4 19,9 4 2 12 6 NNO 1014,6 19 0,0
21.09.2018 22:00:00 22,2 18,8 20,8 6 3 10 5 N 1014,9 20 0,0
21.09.2018 21:00:00 23,4 18,9 21,6 4 2 10 5 N 1014,9 24 0,0
21.09.2018 20:00:00 24,7 19,3 23,2 6 3 16 9 N 1014,4 28 0,0
21.09.2018 19:00:00 25,8 19,0 25,2 9 5 25 13 NO 1014,3 32 0,0
21.09.2018 18:00:00 27,3 18,9 30,7 9 5 19 11 ONO 1013,9 36 0,0
21.09.2018 17:00:00 28,0 19,0 32,8 9 5 23 12 O 1014,1 20 0,0
21.09.2018 16:00:00 28,0 19,5 33,0 13 7 27 14 OZO 1014,5 20 0,0
21.09.2018 15:00:00 28,1 20,4 33,4 15 8 35 19 ZO 1014,8 32 0,0
21.09.2018 14:00:00 28,3 18,7 33,2 16 9 33 18 ZZO 1014,8 20 0,0
21.09.2018 13:00:00 27,8 18,5 34,2 11 6 19 11 ZO 1015,5 20 0,0
21.09.2018 12:00:00 27,9 18,0 34,3 11 6 21 11 ZZO 1016,1 48 0,0
21.09.2018 11:00:00 27,9 16,2 30,7 8 4 12 6 Z 1016,4 52 0,0
21.09.2018 10:00:00 25,3 16,4 23,2 4 2 10 5 N 1016,4 20 0,0
21.09.2018 09:00:00 21,6 15,9 20,4 6 3 13 7 N 1016,2 19 0,0
21.09.2018 08:00:00 19,6 15,9 18,0 7 4 13 7 N 1016,1 20 0,0
21.09.2018 07:00:00 19,4 15,9 17,8 9 5 16 9 NNO 1015,8 19 0,0
21.09.2018 06:00:00 19,5 16,0 17,9 6 3 11 6 NNO 1015,7 20 0,0
21.09.2018 05:00:00 20,0 16,2 18,0 3 1 10 6 NNO 1015,9 20 0,0
21.09.2018 04:00:00 20,5 16,3 19,1 6 3 13 7 N 1015,9 20 0,0
21.09.2018 03:00:00 20,8 16,6 19,7 6 3 12 7 N 1016,3 23 0,0
21.09.2018 02:00:00 20,8 16,6 19,7 6 4 11 6 N 1016,6 20 0,0
21.09.2018 01:00:00 21,2 16,8 19,4 6 4 11 6 N 1016,7 20 0,0
21.09.2018 00:00:00 22,1 17,0 20,8 7 4 11 6 N 1017,1 25 0,0
20.09.2018 23:00:00 22,8 17,3 21,9 6 3 10 5 N 1017,1 25 0,0
20.09.2018 22:00:00 23,0 17,2 21,7 4 2 8 5 NNW 1017,1 25 0,0
20.09.2018 21:00:00 23,5 17,0 22,2 3 2 7 4 NNW 1017,0 26 0,0
20.09.2018 20:00:00 24,7 17,2 21,6 4 2 6 4 N 1016,7 19 0,0
20.09.2018 19:00:00 26,1 17,7 25,4 3 2 12 6 WZW 1016,8 20 0,0
20.09.2018 18:00:00 27,1 18,1 31,4 8 4 17 9 Z 1017,0 20 0,0
20.09.2018 17:00:00 27,8 18,5 33,7 9 5 16 9 ZZO 1017,3 10 0,0
20.09.2018 16:00:00 27,4 19,5 34,6 10 5 21 11 Z 1017,5 12 0,0
20.09.2018 15:00:00 27,2 20,0 34,5 13 7 22 12 ZZO 1017,9 16 0,0
20.09.2018 14:00:00 27,6 19,7 34,6 11 6 22 12 ZZO 1018,1 19 0,0
20.09.2018 13:00:00 27,4 19,2 34,4 14 7 23 12 Z 1018,4 36 0,0
20.09.2018 12:00:00 27,9 17,7 34,3 9 5 16 9 Z 1018,8 19 0,0
20.09.2018 11:00:00 28,1 16,4 30,6 7 4 11 6 ZZO 1018,9 34 0,0
20.09.2018 10:00:00 25,2 16,3 24,0 4 2 11 6 N 1018,8 30 0,0
20.09.2018 09:00:00 21,6 15,9 19,8 5 3 11 6 N 1018,8 19 0,0
20.09.2018 08:00:00 18,7 15,4 17,4 6 4 14 8 N 1018,6 20 0,0
20.09.2018 07:00:00 18,5 15,4 17,3 7 4 14 8 N 1018,3 20 0,0
20.09.2018 06:00:00 18,6 15,3 17,6 8 4 14 8 N 1018,4 25 0,0
20.09.2018 05:00:00 18,8 15,5 17,7 8 4 14 7 N 1018,5 25 0,0
20.09.2018 04:00:00 19,1 15,4 17,4 7 4 13 7 N 1018,7 25 0,0
20.09.2018 03:00:00 19,2 16,1 18,3 8 5 15 8 N 1018,9 22 0,0
20.09.2018 02:00:00 19,7 16,3 18,3 7 4 13 7 N 1019,3 23 0,0
20.09.2018 01:00:00 20,1 16,3 18,8 5 3 12 6 NNW 1019,5 25 0,0
20.09.2018 00:00:00 20,8 16,4 19,2 6 3 12 6 N 1019,6 27 0,0
19.09.2018 23:00:00 21,3 16,3 19,4 4 2 8 4 N 1019,4 29 0,0
19.09.2018 22:00:00 21,9 16,0 20,4 4 2 9 5 N 1019,3 31 0,0
19.09.2018 21:00:00 22,7 16,5 20,7 4 2 8 5 N 1019,1 28 0,0
19.09.2018 20:00:00 24,2 18,4 21,4 4 2 8 4 Z 1018,8 18 0,0
19.09.2018 19:00:00 26,2 17,0 26,3 5 3 10 5 Z 1018,7 36 0,0
19.09.2018 18:00:00 27,2 18,2 32,2 6 3 15 8 Z 1018,3 29 0,0
19.09.2018 17:00:00 27,2 19,0 34,0 8 4 17 9 Z 1018,4 20 0,0
19.09.2018 16:00:00 27,1 18,7 34,0 9 5 20 11 ZZO 1018,8 20 0,0
19.09.2018 15:00:00 27,6 19,7 34,4 12 7 26 14 Z 1019,0 19 0,0
19.09.2018 14:00:00 27,7 16,9 35,0 16 9 23 12 ZZO 1019,1 19 0,0
19.09.2018 13:00:00 27,6 18,6 34,3 12 7 18 10 ZZO 1019,5 20 0,0
19.09.2018 12:00:00 27,2 17,4 33,6 9 5 17 9 ZZO 1019,8 60 0,0
19.09.2018 11:00:00 27,4 15,7 28,1 4 2 8 4 ZO 1020,0 55 0,0

tt = temperatuur
td = dauwpunt
tt 5cm = temperatuur 5cm
ff = windsnelheid
fx = windstoten
dd = windrichting
ppp = luchtdruk
vv = zicht
rr = neerslag

Weerstations in de omgeving